Lid_Strength_Index
4 4 5 5 5 5 6 6 6 6 6 6 6 6 5 5 5 8 10 9 10 13 13 11 10 13 13 14 16 13 12 12 13 15 16 15 16 14 15 13 14 15 17 17 16 18 18 8 9 12 11 9 7 7
5 5 5 5 5 5 6 6 6 6 6 6 5 5 4 5 5 6 11 8 7 10 12 10 9 9 10 10 13 13 14 13 12 14 13 14 15 14 15 16 12 16 14 17 15 15 11 8 8 7 7 8 7 7
5 5 5 5 5 5 5 5 5 5 5 5 4 4 4 4 4 5 7 9 10 12 11 12 12 9 8 9 8 13 12 10 10 9 11 13 15 14 16 16 14 13 12 15 14 11 10 7 7 6 6 7 6 6
5 5 5 5 5 5 5 5 4 4 4 4 4 4 4 4 4 4 8 9 9 10 12 13 8 9 7 8 8 7 9 9 10 10 13 14 15 13 15 14 15 13 13 13 12 10 8 7 6 6 6 6 6 6
5 5 5 5 5 5 4 4 4 4 4 4 4 4 4 4 4 5 8 8 7 8 11 11 8 8 8 9 8 8 9 10 11 12 12 14 13 13 14 14 15 12 12 12 13 9 9 8 7 6 7 7 6 7
5 5 4 4 4 4 3 3 3 3 3 3 3 3 3 3 3 8 11 4 3 4 9 12 10 9 8 8 8 8 8 9 10 11 12 12 10 13 17 16 11 10 8 8 9 8 7 7 6 6 7 7 8 8
4 3 3 3 3 3 3 2 2 2 2 2 3 3 3 3 7 10 11 5 4 7 10 13 13 10 7 7 7 7 7 8 7 10 12 12 12 11 14 15 10 9 8 7 7 8 8 7 8 7 8 8 7 8
3 2 2 2 2 2 1 1 1 1 1 2 2 2 2 1 4 8 7 3 3 8 10 13 13 11 5 8 8 7 9 9 9 9 11 11 10 11 12 11 9 8 8 7 6 6 7 7 8 8 7 8 9 9
2 1 1 1 1 0 0 0 0 0 1 1 1 1 3 4 7 6 1 2 4 7 11 11 14 14 6 7 8 8 7 9 8 9 9 9 13 12 11 10 9 8 7 7 6 7 8 8 8 8 7 8 9 9
1 0 -0 -0 -1 -1 -0 -0 -0 0 1 1 2 5 7 5 1 2 6 6 6 6 7 10 10 13 10 10 10 8 9 10 11 9 8 13 13 9 9 8 8 7 7 6 9 9 9 9 7 7 8 8 8 8
-0 -1 -1 -1 -1 -1 -1 -0 -0 0 1 3 4 6 3 1 5 7 8 9 8 10 8 9 11 12 10 13 13 8 9 9 12 11 11 12 13 10 7 7 6 6 6 6 7 7 7 6 6 8 7 7 7 8
-1 -1 -1 -1 -1 -1 -1 -0 -0 2 3 3 3 3 5 7 8 9 9 9 10 11 8 10 9 10 11 9 10 9 10 10 13 8 11 13 11 8 6 7 7 6 6 6 6 6 6 5 5 6 6 7 7 8
-1 -1 -1 -1 -0 -0 -0 -0 0 0 1 4 5 6 8 9 12 11 12 11 11 8 7 7 8 7 9 8 10 10 15 14 8 12 13 11 9 7 6 6 6 6 5 5 5 5 5 5 5 5 6 6 7 8
-1 -1 -0 -1 -0 -0 -0 0 0 0 4 7 9 12 10 11 10 10 10 11 8 7 7 7 8 8 7 10 10 11 10 10 13 16 13 11 8 6 5 5 5 6 6 6 5 5 6 6 6 5 6 6 7 7
-0 -1 -1 -0 -0 -0 -0 -0 0 2 5 8 8 13 10 8 6 6 6 7 6 5 6 7 8 7 9 10 9 10 12 14 13 13 11 9 7 6 5 5 5 6 6 6 6 6 6 6 6 7 7 7 6 7
-0 0 1 0 1 1 0 1 2 4 5 7 8 9 8 8 8 8 8 7 5 6 5 6 9 10 11 10 12 12 13 14 12 10 9 7 7 6 6 5 5 5 5 6 6 5 6 6 6 7 7 7 7 7
0 2 -0 -0 0 0 0 3 4 6 7 7 9 8 8 8 9 8 7 7 7 8 10 9 11 12 9 11 12 10 12 11 10 9 8 7 6 6 6 5 4 4 5 5 5 5 6 6 7 7 8 8 8 8
2 1 -1 -1 0 1 4 4 5 7 9 9 10 9 8 8 8 8 7 7 8 9 9 9 7 11 12 13 15 10 8 8 8 8 7 6 6 7 6 6 5 5 5 5 5 5 6 7 8 8 8 8 8 9
1 1 -1 -0 1 2 4 5 6 9 9 9 9 9 8 8 7 7 7 7 7 7 9 8 9 11 10 9 10 9 8 9 9 7 6 7 7 7 6 6 4 5 5 6 6 6 6 7 8 8 8 9 9 9
-0 -0 -0 -0 1 6 7 7 5 8 9 9 8 9 9 8 8 8 8 8 8 9 10 11 11 9 9 7 7 8 9 8 8 9 9 7 7 6 6 6 6 5 6 7 7 7 7 7 7 8 8 9 9 10
2 2 0 3 5 6 9 9 9 8 8 9 8 9 9 8 9 9 9 8 9 10 11 10 9 7 5 5 6 7 8 7 8 8 8 8 7 6 6 6 5 6 7 7 7 7 7 7 7 8 8 8 9 9
3 1 4 4 6 6 8 7 8 8 9 9 9 9 10 11 11 10 8 10 10 9 10 9 8 7 6 6 7 7 7 7 7 7 7 7 8 7 7 7 7 6 7 7 7 7 7 7 7 7 8 8 8 8
2 3 5 5 8 11 10 6 9 9 11 9 8 9 9 10 9 7 10 9 8 7 7 9 7 7 6 5 5 5 6 6 7 7 7 7 7 7 7 7 6 6 6 6 6 7 7 8 7 7 8 8 8 9
2 6 8 9 8 10 7 8 7 8 8 9 9 9 9 8 6 8 9 8 6 5 6 7 6 7 8 8 9 8 8 8 8 7 7 7 7 7 7 7 5 5 6 5 6 6 6 6 7 6 7 7 8 9
8 12 12 16 9 9 9 8 8 8 10 9 10 9 8 6 9 10 9 7 6 6 7 6 7 7 7 7 6 6 6 8 7 7 7 7 7 7 7 6 5 4 4 5 5 5 6 6 6 6 6 7 7 8
12 10 13 10 9 9 9 10 10 10 9 10 10 10 10 12 10 11 8 7 8 8 7 7 7 7 7 7 6 5 5 5 7 7 7 7 7 7 7 6 6 4 3 3 4 4 5 6 6 6 6 7 9 8
15 11 9 6 7 8 11 10 9 11 9 10 9 9 10 14 12 9 8 5 6 5 5 5 5 6 6 6 5 4 3 6 6 6 6 6 6 6 7 5 5 4 4 3 3 4 5 5 6 6 6 7 7 7
10 10 13 9 8 8 10 11 10 10 9 7 9 11 11 11 12 8 7 5 5 5 5 4 4 4 5 5 5 4 4 4 6 6 6 5 4 3 3 2 1 8 5 4 4 4 4 4 4 5 6 7 7 6
10 8 8 10 8 9 10 11 10 7 6 9 9 9 9 7 6 6 6 5 5 5 5 5 5 4 3 3 4 4 4 4 4 5 6 6 6 5 3 3 2 1 2 2 9 6 5 5 4 5 5 6 6 6
9 7 8 9 11 14 9 6 6 6 6 6 6 7 8 6 5 4 5 5 6 6 5 5 6 5 4 5 6 5 5 5 5 6 7 7 7 5 5 4 3 3 2 2 2 1 7 5 6 5 5 5 5 5
7 8 9 9 10 7 6 5 6 6 6 7 6 8 8 7 6 5 5 5 5 5 6 6 6 5 6 6 7 7 6 5 6 6 7 7 7 7 6 6 4 3 2 2 3 2 3 3 4 5 5 5 5 6
9 10 10 10 9 7 6 7 8 8 8 8 8 7 7 8 9 7 5 5 6 7 7 6 6 6 5 4 5 5 8 5 5 7 7 8 8 8 7 6 4 2 3 3 4 4 4 4 4 4 4 5 5 6
10 9 9 10 10 10 8 8 9 9 8 8 8 8 8 10 13 7 5 4 5 6 6 6 5 5 6 6 6 5 6 4 5 9 10 11 12 11 9 7 5 5 6 7 7 7 7 6 6 5 5 5 6 6